Regional Weather Roundup
Issued by NWS

Home | Current Version | Previous Version | Graphics & Text | Print | Product List | Glossary On
Versions: 1 2 3 4 5 6 7 8 9 10 11 12 13 14 15 16 17 18 19 20 21 22 23 24 25 26 27 28 29 30 31 32 33 34 35 36 37 38 39 40 41 42 43 44 45 46 47 48 49 50
000
ASUS43 KMKX 060500
RWRWI

WISCONSIN REGIONAL WEATHER ROUNDUP
NATIONAL WEATHER SERVICE MILWAUKEE/SULLIVAN WI
1100 PM CST MON DEC 05 2016

NOTE: "FAIR" INDICATES FEW OR NO CLOUDS BELOW 12,000 FEET WITH NO
SIGNIFICANT WEATHER AND/OR OBSTRUCTIONS TO VISIBILITY.

WIZ001-002-006>008-014>016-023>028-060600-
NORTHWEST WISCONSIN

CITY           SKY/WX    TMP DP  RH WIND       PRES   REMARKS
SUPERIOR ARPT  CLOUDY    36  33  88 SE3       29.66F
ASHLAND        CLOUDY    37  31  78 MISG      29.71F
HAYWARD        CLOUDY    36  29  75 S10       29.69F WCI  28
SIREN          CLOUDY    37  31  81 S15G25    29.65S WCI  27
CUMBERLAND     CLOUDY    34  30  86 S16       29.67F WCI  23
RICE LAKE      CLOUDY    35  31  85 SE14      29.71F WCI  26
CHETEK         CLOUDY    35  31  85 SE9       29.72S WCI  27
LADYSMITH      MOCLDY    35  31  85 SE8       29.76S WCI  28
EAU CLAIRE     NOT AVBL
MENOMONIE      CLOUDY    35  32  87 SE9       29.73S WCI  28
NEW RICHMOND   CLOUDY    36  32  87 S15       29.67S WCI  26
OSCEOLA        CLOUDY    37  32  82 SE14      29.68F WCI  28
$$

WIZ003>005-009-010-017-018-060600-
NORTH CENTRAL WISCONSIN

CITY           SKY/WX    TMP DP  RH WIND       PRES   REMARKS
MANITOWISH WTR CLOUDY    34  32  93 SE7       29.75R WCI  28
ARBOR VITAE    CLOUDY    37  32  84 S6        29.76R WCI  32
WOODRUFF       CLOUDY    37  32  84 S6        29.76R WCI  32
RHINELANDER    MOCLDY    35  30  82 SE10      29.76F WCI  27
EAGLE RIVER    CLOUDY    35  32  90 SE9       29.78F WCI  27
LAND O LAKES   CLOUDY    34  32  92 SE9       29.79F WCI  27
PHILLIPS       PTCLDY    32  29  90 S9        29.74S WCI  24
TOMAHAWK       PTCLDY    32  29  87 S3        29.79R
MEDFORD        CLOUDY    30  28  92 SE7       29.77F WCI  23
MERRILL        CLOUDY    32  31  96 S8        29.80S WCI  25
$$

WIZ029-030-035-036-043>047-060600-
CENTRAL WISCONSIN

CITY           SKY/WX    TMP DP  RH WIND       PRES   REMARKS
WAUSAU         MOCLDY    31  29  92 SE10      29.80F WCI  22
MOSINEE        PTCLDY    32  32 100 SE7       29.83R FOG     WCI  26
MARSHFIELD     PTCLDY    32  29  88 S12       29.79S WCI  23
STEVENS POINT  CLOUDY    30  30 100 SE6       29.85S FOG     WCI  24
WAUPACA        CLOUDY    34  32  93 SE3       29.88F FOG
WAUTOMA        CLOUDY    32  31  96 SE12      29.88S WCI  23
WISC RAPIDS    MOCLDY    32  31  96 SE10      29.82F WCI  24
CAMP DOUGLAS   NOT AVBL
$$

WIZ011>013-019>022-031-037>040-048>050-060600-
NORTHEAST WISCONSIN

CITY           SKY/WX    TMP DP  RH WIND       PRES   REMARKS
ANTIGO         CLOUDY    30  30 100 SE9       29.83F FOG     WCI  22
SHAWANO        CLOUDY    35  32  90 SE5       29.89F FOG     WCI  31
OCONTO         CLOUDY    34  32  92 SE7       29.92F WCI  28
STURGEON BAY   CLOUDY    35  34  96 SE9       29.92F FOG     WCI  28
GREEN BAY      MOCLDY    35  34  96 SE7       29.90F WCI  29
MANITOWOC      NOT AVBL
APPLETON       CLOUDY    34  32  93 SE9       29.86F WCI  26
CLINTONVILLE   CLOUDY    32  32 100 SE5       29.88F FOG     WCI  27
OSHKOSH        CLOUDY    33  30  88 S7        29.88F WCI  27
$$

WIZ032>034-041-042-053>061-060600-
SOUTHWEST WISCONSIN

CITY           SKY/WX    TMP DP  RH WIND       PRES   REMARKS
LA CROSSE      CLOUDY    36  31  82 S12       29.81R WCI  28
SPARTA         CLOUDY    34  31  90 SE12      29.82S WCI  25
VIROQUA        CLOUDY    32  32 100 SE12      29.79F WCI  23
BOSCOBEL       CLOUDY    34  31  88 CALM      29.86S
PRAIRIE DU CHI CLOUDY    34  30  85 SE8       29.83F WCI  27
PLATTEVILLE    CLOUDY    31  31 100 SE10      29.87R WCI  23
$$

WIZ056-057-062-063-064-067-068-060600-
SOUTH CENTRAL WISCONSIN

CITY           SKY/WX    TMP DP  RH WIND       PRES   REMARKS
REEDSBURG      CLOUDY    32  32 100 SE8       29.84F WCI  25
BARABOO/DELLS  CLOUDY    32  31  96 SE12      29.85F FOG     WCI  23
LONE ROCK      NOT AVBL
MINERAL POINT  FOG       32  32 100 SE13      29.85S VSB 3/4 WCI  22
MADISON        CLOUDY    31  30  96 S10       29.89S WCI  22
MIDDLETON      NOT AVBL
WATERTOWN      CLOUDY    31  31 100 SE8       29.90F FOG     WCI  24
MONROE         CLOUDY    30  30 100 SE16      29.88R FOG     WCI  19
JANESVILLE     CLOUDY    32  32 100 SE13      29.90F FOG     WCI  22
$$

WIZ051-052-058>065-066-070>072-060600-
SOUTHEAST WISCONSIN

CITY           SKY/WX    TMP DP  RH WIND       PRES   REMARKS
MILWAUKEE      CLOUDY    37  33  85 SE9       29.93S WCI  30
WAUKESHA       FOG       32  32 100 SE12      29.93F VSB 3/4 WCI  23
MILWAUKEE/TIMM CLOUDY    34  32  93 S8        29.94S FOG     WCI  27
RACINE         CLOUDY    37  32  82 S12       29.95F WCI  29
BURLINGTON     CLOUDY    31  30  98 CALM      29.93F FOG
KENOSHA        CLOUDY    34  32  92 S9        29.93F FOG     WCI  27
FOND DU LAC    CLOUDY    33  29  85 S13       29.90S WCI  24
SHEBOYGAN      CLOUDY    34  31  88 S3        29.92F FOG
WEST BEND      CLOUDY    32  32 100 S6        29.92S FOG     WCI  26
JUNEAU         CLOUDY    31  30  96 SE12      29.91R FOG     WCI  22
$$

LSZ147-162-060600-
LAKE SUPERIOR

STATION/POSITION TIME  TEMP    WIND        PRES    WAVE
                       AIR SEA DIR/SP/G            HT/PER
                 (UTC) (F)     (DEG/KT/KT) (MB)    (FT/S)
DEVILS ISLAND    0400   40     130/ 14/ 19 1007.0R
PORT WING        0430   38     130/  4/ 10 1005.8S
SAXON HARBOR     0440   40     170/  2/  8 1006.8R
$$

LMZ867-665-643>646-060600-
LAKE MICHIGAN

STATION/POSITION TIME  TEMP    WIND        PRES    WAVE
                       AIR SEA DIR/SP/G            HT/PER
                 (UTC) (F)     (DEG/KT/KT) (MB)    (FT/S)
CHAMBERS ISLAND  0440   37     170/  5/ 12 1013.5R
NORTHPORT PIER   0440   37     150/  5/  7 1013.9F
SISTER BAY       0353   35     180/  8/  9   N/A
ALGOMA LAKESHORE 0236             CALM       N/A
KEWAUNEE LAKESHO 0430   40     180/ 13/ 14 1013.1F
SHEBOYGAN LAKESH 0400   39     170/ 15/ 16 1013.8F
PORT WASHINGTON  0440   40     170/ 15/ 18 1014.2F
MILWAUKEE LAKESH 0430   38     190/  9/ 11   N/A
KENOSHA   LAKESH 0400   38     160/ 18/ 22 1014.2
$$

TC  - TEMPERATURE IN CELSIUS
VSB - VISIBILITY IN STATUTE MILES
WCI - WIND CHILL INDEX
HX  - HEAT INDEX





USA.gov is the U.S. government's official web portal to all federal, state and local government web resources and services.